| Date | Time | Temp. (oF) | Dew Point (oF) | Rel. Hum. (%) | Press. (in.) | Wind Dir. | Wind Speed (mph) | Hourly Rainfall (in.) |
|
|---|---|---|---|---|---|---|---|---|---|
| 1 | 11/14 | 00:00 | 49 | 49 | 100 | 29.95 | WSW | 1 | 0.00 |
| 2 | 11/13 | 23:00 | 50 | 50 | 100 | 29.97 | ESE | 0 | 0.00 |
| 3 | 11/13 | 22:00 | 50 | 50 | 100 | 29.98 | W | 1 | 0.00 |
| 4 | 11/13 | 21:00 | 50 | 50 | 100 | 29.96 | W | 1 | 0.01 |
| 5 | 11/13 | 20:00 | 50 | 50 | 100 | 29.96 | NNE | 0 | 0.00 |
| 6 | 11/13 | 19:00 | 50 | 50 | 100 | 29.97 | NNE | 0 | 0.00 |
| 7 | 11/13 | 18:00 | 50 | 50 | 100 | 29.98 | NNW | 0 | 0.00 |
| 8 | 11/13 | 17:00 | 50 | 50 | 100 | 29.98 | NW | 2 | 0.00 |
| 9 | 11/13 | 16:00 | 50 | 50 | 100 | 29.97 | WSW | 0 | 0.00 |
| 10 | 11/13 | 15:00 | 50 | 50 | 100 | 29.97 | ENE | 2 | 0.00 |
| 11 | 11/13 | 14:00 | 49 | 49 | 100 | 29.98 | NE | 0 | 0.02 |
| 12 | 11/13 | 13:00 | 46 | 45 | 100 | 30.02 | ESE | 5 | 0.10 |
| 13 | 11/13 | 12:00 | 45 | 45 | 100 | 30.11 | ESE | 2 | 0.07 |
| 14 | 11/13 | 11:00 | 44 | 44 | 100 | 30.16 | ESE | 2 | 0.19 |
| 15 | 11/13 | 10:00 | 44 | 43 | 99 | 30.21 | WNW | 3 | 0.12 |
| 16 | 11/13 | 09:00 | 44 | 42 | 94 | 30.16 | NNE | 3 | 0.04 |
| 17 | 11/13 | 08:00 | 44 | 40 | 89 | 30.14 | SE | 2 | 0.00 |
| 18 | 11/13 | 07:00 | 43 | 39 | 87 | 30.15 | ENE | 3 | 0.00 |
| 19 | 11/13 | 06:00 | 43 | 39 | 86 | 30.18 | SE | 2 | 0.00 |
| 20 | 11/13 | 05:00 | 42 | 39 | 90 | 30.19 | SSE | 1 | 0.00 |
| 21 | 11/13 | 04:00 | 42 | 39 | 91 | 30.22 | ENE | 1 | 0.00 |
| 22 | 11/13 | 03:00 | 42 | 39 | 90 | 30.25 | ESE | 2 | 0.00 |
| 23 | 11/13 | 02:00 | 42 | 38 | 89 | 30.27 | ESE | 0 | 0.00 |
| 24 | 11/13 | 01:00 | 43 | 39 | 86 | 30.28 | S | 0 | 0.00 |